| time (UTC) | temp F | wind direction | speed MPH | gust MPH | rain 1hr in | rain 24hr in | rain mn in | humidity % | barometer mb |
| 20260504222834 | 91 | 0.0 | 0.0 | 0.00 | 0.00 | 0.00 | 66 | 1008.9 | |
| 20260504222333 | 91 | 0.0 | 0.0 | 0.00 | 0.00 | 0.00 | 65 | 1008.9 | |
| 20260504221834 | 91 | 0.0 | 0.0 | 0.00 | 0.00 | 0.00 | 65 | 1009.0 | |
| 20260504221339 | 91 | 0.0 | 0.0 | 0.00 | 0.00 | 0.00 | 65 | 1008.8 | |
| 20260504220833 | 91 | 0.0 | 0.0 | 0.00 | 0.00 | 0.00 | 66 | 1008.6 | |
| 20260504220333 | 91 | 0.0 | 0.0 | 0.00 | 0.00 | 0.00 | 66 | 1008.6 | |
| 20260504215833 | 91 | 0.0 | 0.0 | 0.00 | 0.00 | 0.00 | 65 | 1008.5 | |
| 20260504215334 | 91 | 0.0 | 0.0 | 0.00 | 0.00 | 0.00 | 65 | 1008.4 | |
| 20260504214833 | 91 | 0.0 | 0.0 | 0.00 | 0.00 | 0.00 | 65 | 1008.4 | |
| 20260504214333 | 91 | 0.0 | 0.0 | 0.00 | 0.00 | 0.00 | 65 | 1008.3 | |
| 20260504213833 | 91 | 0.0 | 0.0 | 0.00 | 0.00 | 0.00 | 65 | 1008.0 | |
| 20260504213333 | 91 | 0.0 | 0.0 | 0.00 | 0.00 | 0.00 | 65 | 1007.9 | |
| 20260504212833 | 91 | 0.0 | 0.0 | 0.00 | 0.00 | 0.00 | 65 | 1008.0 | |
| 20260504212333 | 92 | 0.0 | 0.0 | 0.00 | 0.00 | 0.00 | 65 | 1007.9 | |
| 20260504211833 | 92 | 0.0 | 0.0 | 0.00 | 0.00 | 0.00 | 65 | 1007.8 | |
| 20260504211334 | 92 | 0.0 | 0.0 | 0.00 | 0.00 | 0.00 | 65 | 1007.4 | |
| 20260504210834 | 91 | 0.0 | 0.0 | 0.00 | 0.00 | 0.00 | 65 | 1007.5 | |
| 20260504210333 | 92 | 0.0 | 0.0 | 0.00 | 0.00 | 0.00 | 65 | 1007.5 | |
| 20260504205833 | 91 | 0.0 | 0.0 | 0.00 | 0.00 | 0.00 | 65 | 1007.4 | |
| 20260504205333 | 91 | 0.0 | 0.0 | 0.00 | 0.00 | 0.00 | 65 | 1007.3 | |
| 20260504204833 | 92 | 0.0 | 0.0 | 0.00 | 0.00 | 0.00 | 65 | 1007.5 | |
| 20260504204334 | 92 | 0.0 | 0.0 | 0.00 | 0.00 | 0.00 | 65 | 1007.5 | |
| 20260504203834 | 92 | 0.0 | 0.0 | 0.00 | 0.00 | 0.00 | 65 | 1007.6 | |
| 20260504203333 | 92 | 0.0 | 0.0 | 0.00 | 0.00 | 0.00 | 64 | 1007.6 | |
| 20260504202833 | 92 | 0.0 | 0.0 | 0.00 | 0.00 | 0.00 | 64 | 1007.6 | |
| 20260504202333 | 93 | 0.0 | 0.0 | 0.00 | 0.00 | 0.00 | 63 | 1007.7 | |
| 20260504201833 | 93 | 0.0 | 0.0 | 0.00 | 0.00 | 0.00 | 63 | 1007.6 | |
| 20260504201333 | 93 | 0.0 | 0.0 | 0.00 | 0.00 | 0.00 | 63 | 1007.6 | |
| 20260504200834 | 93 | 0.0 | 0.0 | 0.00 | 0.00 | 0.00 | 62 | 1007.6 | |
| 20260504195834 | 93 | 0.0 | 0.0 | 0.00 | 0.00 | 0.00 | 62 | 1007.5 | |
| 20260504195334 | 92 | 0.0 | 0.0 | 0.00 | 0.00 | 0.00 | 64 | 1007.4 | |
| 20260504194834 | 92 | 0.0 | 0.0 | 0.00 | 0.00 | 0.00 | 63 | 1007.3 | |
| 20260504194333 | 93 | 0.0 | 0.0 | 0.00 | 0.00 | 0.00 | 63 | 1007.2 | |
| 20260504193832 | 93 | 0.0 | 0.0 | 0.00 | 0.00 | 0.00 | 63 | 1007.3 | |
| 20260504193333 | 93 | 0.0 | 0.0 | 0.00 | 0.00 | 0.00 | 62 | 1007.4 | |
| 20260504192833 | 94 | 0.0 | 0.0 | 0.00 | 0.00 | 0.00 | 61 | 1007.3 | |
| 20260504192333 | 94 | 0.0 | 0.0 | 0.00 | 0.00 | 0.00 | 62 | 1007.4 | |
| 20260504191832 | 93 | 0.0 | 0.0 | 0.00 | 0.00 | 0.00 | 63 | 1007.5 | |
| 20260504191332 | 93 | 0.0 | 0.0 | 0.00 | 0.00 | 0.00 | 63 | 1007.6 | |
| 20260504190833 | 93 | 0.0 | 0.0 | 0.00 | 0.00 | 0.00 | 62 | 1007.5 | |
| 20260504190333 | 93 | 0.0 | 0.0 | 0.00 | 0.00 | 0.00 | 62 | 1007.2 | |
| 20260504185833 | 94 | 0.0 | 0.0 | 0.00 | 0.00 | 0.00 | 61 | 1007.3 | |
| 20260504185333 | 94 | 0.0 | 0.0 | 0.00 | 0.00 | 0.00 | 61 | 1007.3 | |
| 20260504184833 | 94 | 0.0 | 0.0 | 0.00 | 0.00 | 0.00 | 61 | 1007.2 | |
| 20260504184332 | 94 | 0.0 | 0.0 | 0.00 | 0.00 | 0.00 | 61 | 1007.3 | |
| 20260504183832 | 94 | 0.0 | 0.0 | 0.00 | 0.00 | 0.00 | 61 | 1007.3 | |
| 20260504183332 | 94 | 0.0 | 0.0 | 0.00 | 0.00 | 0.00 | 61 | 1007.4 | |
| 20260504182333 | 94 | 0.0 | 0.0 | 0.00 | 0.00 | 0.00 | 61 | 1007.5 | |
| 20260504181833 | 95 | 0.0 | 0.0 | 0.00 | 0.00 | 0.00 | 61 | 1007.6 | |
| 20260504181336 | 94 | 0.0 | 0.0 | 0.00 | 0.00 | 0.00 | 61 | 1007.5 | |
| 20260504180832 | 94 | 0.0 | 0.0 | 0.00 | 0.00 | 0.00 | 62 | 1007.6 | |
| 20260504180333 | 93 | 0.0 | 0.0 | 0.00 | 0.00 | 0.00 | 63 | 1007.5 | |
| 20260504175833 | 93 | 0.0 | 0.0 | 0.00 | 0.00 | 0.00 | 63 | 1007.5 | |
| 20260504175333 | 93 | 0.0 | 0.0 | 0.00 | 0.00 | 0.00 | 64 | 1007.6 | |
| 20260504174833 | 92 | 0.0 | 0.0 | 0.00 | 0.00 | 0.00 | 65 | 1007.8 | |
| 20260504174333 | 92 | 0.0 | 0.0 | 0.00 | 0.00 | 0.00 | 65 | 1007.8 | |
| 20260504173833 | 92 | 0.0 | 0.0 | 0.00 | 0.00 | 0.00 | 65 | 1007.8 | |
| 20260504173333 | 92 | 0.0 | 0.0 | 0.00 | 0.00 | 0.00 | 65 | 1007.8 | |
| 20260504172832 | 94 | 0.0 | 0.0 | 0.00 | 0.00 | 0.00 | 63 | 1007.6 | |
| 20260504172332 | 94 | 0.0 | 0.0 | 0.00 | 0.00 | 0.00 | 62 | 1007.7 | |
| 20260504171833 | 94 | 0.0 | 0.0 | 0.00 | 0.00 | 0.00 | 62 | 1007.6 | |
| 20260504171333 | 94 | 0.0 | 0.0 | 0.00 | 0.00 | 0.00 | 62 | 1007.5 | |
| 20260504170833 | 94 | 0.0 | 0.0 | 0.00 | 0.00 | 0.00 | 62 | 1007.6 | |
| 20260504170333 | 94 | 0.0 | 0.0 | 0.00 | 0.00 | 0.00 | 63 | 1007.7 | |
| 20260504160332 | 92 | 0.0 | 0.0 | 0.00 | 0.00 | 0.00 | 68 | 1007.9 | |
| 20260504150832 | 92 | 0.0 | 0.0 | 0.00 | 0.00 | 0.00 | 67 | 1007.4 | |
| 20260504150332 | 92 | 0.0 | 0.0 | 0.00 | 0.00 | 0.00 | 67 | 1007.3 | |
| 20260504141332 | 92 | 0.0 | 0.0 | 0.00 | 0.00 | 0.00 | 69 | 1006.4 | |
| 20260504140832 | 92 | 0.0 | 0.0 | 0.00 | 0.00 | 0.00 | 68 | 1006.3 | |
| 20260504140332 | 93 | 0.0 | 0.0 | 0.00 | 0.00 | 0.00 | 68 | 1006.4 | |
| 20260504130332 | 93 | 0.0 | 0.0 | 0.00 | 0.00 | 0.00 | 65 | 1005.8 | |
| 20260504110332 | 92 | 0.0 | 0.0 | 0.00 | 0.00 | 0.00 | 61 | 1003.8 | |
| 20260504100332 | 94 | 0.0 | 0.0 | 0.00 | 0.00 | 0.00 | 54 | 1002.8 | |
| 20260504081831 | 99 | 0.0 | 0.0 | 0.00 | 0.00 | 0.00 | 53 | 1003.2 | |
| 20260504081331 | 99 | 0.0 | 0.0 | 0.00 | 0.00 | 0.00 | 53 | 1003.1 | |
| 20260504080832 | 99 | 0.0 | 0.0 | 0.00 | 0.00 | 0.00 | 53 | 1003.3 | |
| 20260504080332 | 98 | 0.0 | 0.0 | 0.00 | 0.00 | 0.00 | 53 | 1003.3 | |
| 20260504070331 | 97 | 0.0 | 0.0 | 0.00 | 0.00 | 0.00 | 55 | 1004.8 | |
| 20260504050330 | 96 | 0.0 | 0.0 | 0.00 | 0.00 | 0.00 | 58 | 1007.4 | |
| 20260504045830 | 96 | 0.0 | 0.0 | 0.00 | 0.00 | 0.00 | 58 | 1007.4 | |
| 20260504045331 | 95 | 0.0 | 0.0 | 0.00 | 0.00 | 0.00 | 58 | 1007.4 | |
| 20260504044831 | 95 | 0.0 | 0.0 | 0.00 | 0.00 | 0.00 | 59 | 1007.5 | |
| 20260504044331 | 95 | 0.0 | 0.0 | 0.00 | 0.00 | 0.00 | 59 | 1007.4 | |
| 20260504043831 | 94 | 0.0 | 0.0 | 0.00 | 0.00 | 0.00 | 60 | 1007.5 | |
| 20260504043331 | 95 | 0.0 | 0.0 | 0.00 | 0.00 | 0.00 | 60 | 1007.7 | |
| 20260504042831 | 94 | 0.0 | 0.0 | 0.00 | 0.00 | 0.00 | 60 | 1007.7 | |
| 20260504042330 | 94 | 0.0 | 0.0 | 0.00 | 0.00 | 0.00 | 60 | 1007.6 | |
| 20260504041830 | 94 | 0.0 | 0.0 | 0.00 | 0.00 | 0.00 | 60 | 1007.8 | |
| 20260504041331 | 94 | 0.0 | 0.0 | 0.00 | 0.00 | 0.00 | 60 | 1007.8 | |
| 20260504040831 | 94 | 0.0 | 0.0 | 0.00 | 0.00 | 0.00 | 60 | 1007.9 | |
| 20260504040331 | 94 | 0.0 | 0.0 | 0.00 | 0.00 | 0.00 | 60 | 1007.8 | |
| 20260504035831 | 94 | 0.0 | 0.0 | 0.00 | 0.00 | 0.00 | 59 | 1007.8 | |
| 20260504035331 | 94 | 0.0 | 0.0 | 0.00 | 0.00 | 0.00 | 59 | 1007.9 | |
| 20260504034831 | 94 | 0.0 | 0.0 | 0.00 | 0.00 | 0.00 | 60 | 1007.9 | |
| 20260504034330 | 94 | 0.0 | 0.0 | 0.00 | 0.00 | 0.00 | 60 | 1008.0 | |
| 20260504033830 | 94 | 0.0 | 0.0 | 0.00 | 0.00 | 0.00 | 60 | 1008.0 | |
| 20260504033330 | 94 | 0.0 | 0.0 | 0.00 | 0.00 | 0.00 | 60 | 1008.0 | |
| 20260504032831 | 94 | 0.0 | 0.0 | 0.00 | 0.00 | 0.00 | 60 | 1008.1 | |
| 20260504032331 | 94 | 0.0 | 0.0 | 0.00 | 0.00 | 0.00 | 61 | 1008.1 | |
| 20260504031831 | 94 | 0.0 | 0.0 | 0.00 | 0.00 | 0.00 | 62 | 1008.1 | |
| 20260504031331 | 93 | 0.0 | 0.0 | 0.00 | 0.00 | 0.00 | 62 | 1008.1 | |
| 20260504030830 | 93 | 0.0 | 0.0 | 0.00 | 0.00 | 0.00 | 62 | 1008.2 | |
| 20260504030331 | 93 | 0.0 | 0.0 | 0.00 | 0.00 | 0.00 | 62 | 1008.3 | |
| 20260504025831 | 93 | 0.0 | 0.0 | 0.00 | 0.00 | 0.00 | 63 | 1008.2 | |
| 20260504025331 | 93 | 0.0 | 0.0 | 0.00 | 0.00 | 0.00 | 63 | 1008.3 | |
| 20260504024831 | 92 | 0.0 | 0.0 | 0.00 | 0.00 | 0.00 | 64 | 1008.4 | |
| 20260504024331 | 92 | 0.0 | 0.0 | 0.00 | 0.00 | 0.00 | 64 | 1008.4 | |
| 20260504023831 | 93 | 0.0 | 0.0 | 0.00 | 0.00 | 0.00 | 64 | 1008.5 | |
| 20260504023330 | 93 | 0.0 | 0.0 | 0.00 | 0.00 | 0.00 | 64 | 1008.5 | |
| 20260504022830 | 93 | 0.0 | 0.0 | 0.00 | 0.00 | 0.00 | 64 | 1008.5 | |
| 20260504022330 | 93 | 0.0 | 0.0 | 0.00 | 0.00 | 0.00 | 64 | 1008.5 | |
| 20260504021831 | 93 | 0.0 | 0.0 | 0.00 | 0.00 | 0.00 | 64 | 1008.4 | |
| 20260504021331 | 92 | 0.0 | 0.0 | 0.00 | 0.00 | 0.00 | 65 | 1008.4 | |
| 20260504020830 | 92 | 0.0 | 0.0 | 0.00 | 0.00 | 0.00 | 65 | 1008.3 | |
| 20260504020331 | 92 | 0.0 | 0.0 | 0.00 | 0.00 | 0.00 | 65 | 1008.3 | |
| 20260504015831 | 92 | 0.0 | 0.0 | 0.00 | 0.00 | 0.00 | 65 | 1008.3 | |
| 20260504015331 | 92 | 0.0 | 0.0 | 0.00 | 0.00 | 0.00 | 65 | 1008.3 | |
| 20260504014831 | 92 | 0.0 | 0.0 | 0.00 | 0.00 | 0.00 | 65 | 1008.4 | |
| 20260504014330 | 92 | 0.0 | 0.0 | 0.00 | 0.00 | 0.00 | 65 | 1008.3 | |
| 20260504013830 | 93 | 0.0 | 0.0 | 0.00 | 0.00 | 0.00 | 63 | 1008.3 | |
| 20260504013331 | 93 | 0.0 | 0.0 | 0.00 | 0.00 | 0.00 | 63 | 1008.1 | |
| 20260504012831 | 94 | 0.0 | 0.0 | 0.00 | 0.00 | 0.00 | 61 | 1008.1 | |
| 20260504012330 | 93 | 0.0 | 0.0 | 0.00 | 0.00 | 0.00 | 63 | 1008.0 | |
| 20260504011830 | 93 | 0.0 | 0.0 | 0.00 | 0.00 | 0.00 | 62 | 1008.1 | |
| 20260504011330 | 92 | 0.0 | 0.0 | 0.00 | 0.00 | 0.00 | 63 | 1008.1 | |
| 20260504010830 | 93 | 0.0 | 0.0 | 0.00 | 0.00 | 0.00 | 61 | 1008.1 | |
| 20260504010330 | 92 | 0.0 | 0.0 | 0.00 | 0.00 | 0.00 | 62 | 1008.1 | |
| 20260504005831 | 91 | 0.0 | 0.0 | 0.00 | 0.00 | 0.00 | 63 | 1008.1 | |
| 20260504005330 | 92 | 0.0 | 0.0 | 0.00 | 0.00 | 0.00 | 62 | 1008.0 | |
| 20260504004830 | 94 | 0.0 | 0.0 | 0.00 | 0.00 | 0.00 | 58 | 1007.9 | |
| 20260504004330 | 94 | 0.0 | 0.0 | 0.00 | 0.00 | 0.00 | 59 | 1007.8 | |
| 20260504003830 | 92 | 0.0 | 0.0 | 0.00 | 0.00 | 0.00 | 61 | 1007.7 | |
| 20260504003330 | 93 | 0.0 | 0.0 | 0.00 | 0.00 | 0.00 | 59 | 1007.6 | |
| 20260504002830 | 96 | 0.0 | 0.0 | 0.00 | 0.00 | 0.00 | 55 | 1007.5 | |
| 20260504002330 | 96 | 0.0 | 0.0 | 0.00 | 0.00 | 0.00 | 54 | 1007.4 | |
| 20260504001830 | 96 | 0.0 | 0.0 | 0.00 | 0.00 | 0.00 | 54 | 1007.3 | |
| 20260504001330 | 97 | 0.0 | 0.0 | 0.00 | 0.00 | 0.00 | 54 | 1007.2 | |
| 20260504000830 | 96 | 0.0 | 0.0 | 0.00 | 0.00 | 0.00 | 55 | 1007.1 | |
| 20260504000330 | 96 | 0.0 | 0.0 | 0.00 | 0.00 | 0.00 | 55 | 1007.1 | |
| 20260503235830 | 95 | 0.0 | 0.0 | 0.00 | 0.00 | 0.00 | 56 | 1007.1 | |
| 20260503235330 | 96 | 0.0 | 0.0 | 0.00 | 0.00 | 0.00 | 55 | 1007.0 | |
| 20260503234830 | 96 | 0.0 | 0.0 | 0.00 | 0.00 | 0.00 | 56 | 1007.0 | |
| 20260503234330 | 96 | 0.0 | 0.0 | 0.00 | 0.00 | 0.00 | 56 | 1006.9 | |
| 20260503233830 | 96 | 0.0 | 0.0 | 0.00 | 0.00 | 0.00 | 56 | 1006.8 | |
| 20260503233330 | 96 | 0.0 | 0.0 | 0.00 | 0.00 | 0.00 | 56 | 1006.8 | |
| 20260503232830 | 96 | 0.0 | 0.0 | 0.00 | 0.00 | 0.00 | 55 | 1006.7 | |
| 20260503232330 | 95 | 0.0 | 0.0 | 0.00 | 0.00 | 0.00 | 56 | 1006.6 | |
| 20260503231830 | 96 | 0.0 | 0.0 | 0.00 | 0.00 | 0.00 | 56 | 1006.6 | |
| 20260503231330 | 96 | 0.0 | 0.0 | 0.00 | 0.00 | 0.00 | 56 | 1006.5 | |
| 20260503230830 | 96 | 0.0 | 0.0 | 0.00 | 0.00 | 0.00 | 55 | 1006.4 | |
| 20260503230330 | 96 | 0.0 | 0.0 | 0.00 | 0.00 | 0.00 | 56 | 1006.3 | |
| 20260503225830 | 95 | 0.0 | 0.0 | 0.00 | 0.00 | 0.00 | 57 | 1006.3 | |
| 20260503225330 | 95 | 0.0 | 0.0 | 0.00 | 0.00 | 0.00 | 56 | 1006.1 | |
| 20260503224830 | 95 | 0.0 | 0.0 | 0.00 | 0.00 | 0.00 | 57 | 1006.2 | |
| 20260503224330 | 96 | 0.0 | 0.0 | 0.00 | 0.00 | 0.00 | 56 | 1006.2 | |
| 20260503223830 | 96 | 0.0 | 0.0 | 0.00 | 0.00 | 0.00 | 56 | 1006.1 | |
| 20260503223330 | 95 | 0.0 | 0.0 | 0.00 | 0.00 | 0.00 | 56 | 1005.9 |